Weather Roundup
Issued by NWS Chicago, IL

Home | Current Version | Previous Version | Graphics & Text | Print | Product List | Glossary On
Versions: 1 2 3 4 5 6 7 8 9 10 11 12 13 14 15 16 17 18 19 20 21 22 23 24 25 26 27 28 29 30 31 32 33 34 35 36 37 38 39 40 41 42 43 44 45 46 47 48 49 50
000
NZUS59 KLOT 250203
HRRLOT

CHICAGO AREA WEATHER ROUNDUP
NATIONAL WEATHER SERVICE CHICAGO/ROMEOVILLE IL
800 PM CST FRI NOV 24 2017

NOTE: "FAIR" INDICATES FEW OR NO CLOUDS BELOW 12,000 FEET WITH NO
SIGNIFICANT WEATHER AND/OR OBSTRUCTIONS TO VISIBILITY.

* THESE STATIONS ARE NOT UNDER NWS QUALITY CONTROL. THEY ALSO MAY NOT
  REPORT WEATHER SUCH AS PRECIPITATION OR FOG.

ILZ005-006-012>014-019>023-250300-
NORTHEAST ILLINOIS

CITY           SKY/WX    TMP DP  RH WIND       PRES   REMARKS
OHARE          CLOUDY    55  40  56 SW18      29.49R
MIDWAY         NOT AVBL
AURORA         CLOUDY    54  41  61 SW14      29.51R
LANSING*       CLOUDY    51  39  64 SW18G25   29.53S
JOLIET*        CLOUDY    55  41  58 SW7G18    29.53R
WAUKEGAN       CLOUDY    55  41  59 SW10G20   29.46R
DUPAGE AIRPORT CLOUDY    54  42  64 SW13      29.50R
WHEELING       CLOUDY    56  41  57 SW12      29.50R
KANKAKEE*      CLOUDY    51  37  56 SW18      29.56S
MORRIS*        CLOUDY    54  40  57 SW18      29.52R
LEWIS AIRPORT* CLOUDY   N/A N/A N/A SW12      29.52R
NORTHERLY ISL    N/A     54  36  50 S15         N/A
$$

WIZ051-052-058>065-066-070>072-250300-
SOUTHEAST WISCONSIN

CITY           SKY/WX    TMP DP  RH WIND       PRES   REMARKS
MILWAUKEE      CLOUDY    57  40  52 W8        29.45R
KENOSHA*       CLOUDY    56  40  55 SW13      29.45R
RACINE*        CLOUDY    57  40  52 SW13G20   29.46R
WAUKESHA       CLEAR     52  37  58 W13       29.46R
WEST BEND      CLOUDY    54  37  54 W9        29.43R
$$

INZ001>003-010>013-019-020-250300-
NORTHWEST INDIANA

CITY           SKY/WX    TMP DP  RH WIND       PRES   REMARKS
GARY*          PTCLDY    55  34  44 S16G37    29.52F
MICHIGAN CITY* NOT AVBL
RENSSELAER*    NOT AVBL
VALPARAISO       N/A     52  36  54 S15G28    29.56S
$$

LMZ740>746-250300-
SOUTHERN LAKE MICHIGAN

STATION/POSITION TIME  SKY/WX   TEMP WIND        PRES    VSBY
                                AIR  DIR/SP/G
                 (UTC)          (F)  (DEG/KT/KT) (MB)    (MI)
HARRISON CRIB    0140            55  210/ 32/ 37   N/A
BURNHAM HARBOR   0200            54  150/ 18/ 22   N/A
CALUMET HARBOR   0130            53  190/ 14/ 25  998.5R
BURNS HARBOR     0130            53  190/ 25/ 30 1000.0S
MICHIGAN CITY    0140            53  170/ 24/ 29   N/A
$$

ABBREVIATIONS USED IN REMARKS
   TC - TEMPERATURE IN CELSIUS
  WCI - WIND CHILL INDEX
   HX - HEAT INDEX
  VSB - VISIBILITY
$$




USA.gov is the U.S. government's official web portal to all federal, state and local government web resources and services.